Regional Weather Roundup
Issued by NWS

Home | Current Version | Previous Version | Graphics & Text | Print | Product List | Glossary Off
Versions: 1 2 3 4 5 6 7 8 9 10 11 12 13 14 15 16 17 18 19 20 21 22 23 24 25 26 27 28 29 30 31 32 33 34 35 36 37 38 39 40 41 42 43 44 45 46 47 48 49 50

000
ASUS43 KTOP 020208
RWRKS

WEATHER ROUNDUP FOR KANSAS
NATIONAL WEATHER SERVICE GOODLAND KS
900 PM CDT WED OCT 01 2014

NOTE:  "FAIR" INDICATES FEW OR NO CLOUDS BELOW 12,000 FEET WITH NO
SIGNIFICANT WEATHER AND/OR OBSTRUCTIONS TO VISIBILITY.

KSZ001>006-013>018-027>032-041>047-020300-
NORTHWEST KANSAS

CITY           SKY/WX    TMP DP  RH WIND       PRES   REMARKS
GOODLAND       CLOUDY    55  46  71 NW23G38   29.89R
HAYS           PTCLDY    64  57  77 CALM      29.76R
HILL CITY      PTCLDY    65  52  62 CALM      29.77R
RUSSELL        CLEAR     69  61  75 N5        29.73R
$$

KSZ061>065-074>080-084>089-020300-
SOUTHWEST KANSAS

CITY           SKY/WX    TMP DP  RH WIND       PRES   REMARKS
DODGE CITY     PTCLDY    65  56  72 NE8       29.77R
GARDEN CITY    CLEAR     64  51  62 E8        29.77R
GREAT BEND     CLEAR     68  63  83 N6        29.74R
LIBERAL        CLEAR     72  39  30 E6        29.77S
PRATT          CLEAR     68  63  83 N9        29.74R
$$

KSZ066>073-081>083-090>101-020300-
SOUTHEAST KANSAS

CITY           SKY/WX    TMP DP  RH WIND       PRES   REMARKS
CHANUTE        PTCLDY    75  68  78 S16       29.71R
COFFEYVILLE    CLEAR     78  68  71 S14       29.71R
HUTCHINSON     CLEAR     74  66  76 N10       29.69R
MEDICINE LODGE   N/A     74  49  41 N6        29.69R
NEWTON         CLEAR     77  55  47 NE3       29.71R
PARSONS        LGT RAIN  77  70  79 S9        29.72S
WICHITA INTL   PTCLDY    77  55  46 SW5       29.67R
WICHITA JABRA  CLEAR     75  61  61 VRB3      29.67R
WICHITA MCCONL CLEAR     76  56  51 S5        29.68R
WINFIELD       CLEAR     79  62  56 S12       29.69R
$$

KSZ007>012-019>026-033>040-048>060-102>105-020300-
NORTHEAST KANSAS

CITY           SKY/WX    TMP DP  RH WIND       PRES   REMARKS
CONCORDIA      PTCLDY    67  63  87 E5        29.74R
EMPORIA        MOCLDY    69  65  86 SE13      29.70S
LAWRENCE       MOCLDY    70  65  84 SE7       29.71S THUNDER
MANHATTAN      PTCLDY    70  64  81 E6        29.71F
MARYSVILLE     PTCLDY    70  63  78 CALM      29.74S
OLATHE IND     TSTM      69  68  96 SE8       29.74R FOG
OLATHE EXE     TSTM      68  67  96 E7        29.73S
SALINA         CLEAR     73  62  68 N7        29.70S
TOPEKA BILLARD TSTM      66  66 100 N13G26    29.73R FOG
TOPEKA FORBES  CLOUDY    70  63  78 NE8       29.74R
$$



USA.gov is the U.S. government's official web portal to all federal, state and local government web resources and services.